Hinckley, MN

9:55 PM CST on December 04, 2016 (GMT -0600)
Hinckley

Weather History for K04W - November, 2013

Change the Weather History Date:

Wednesday, November 20, 2013

  Actual Average (KJMR) Record (KJMR)
Temperature  
Mean Temperature 40 °F -  
Max Temperature 44 °F 35 °F 58 °F (1982)
Min Temperature 35 °F 17 °F -7 °F (1969)
Degree Days  
Heating Degree Days 26    
Moisture  
Dew Point 29 °F    
Average Humidity 64    
Maximum Humidity 93    
Minimum Humidity 49    
Precipitation  
Precipitation 0.00 in - - ()
Sea Level Pressure  
Sea Level Pressure 29.93 in    
Wind  
Wind Speed 12 mph (SSE)    
Max Wind Speed 18 mph    
Max Gust Speed 23 mph    
Visibility 10 miles    
Events      
Averages and records for this station are not official NWS values.
T = Trace of Precipitation, MM = Missing Value Source: NWS Daily Summary

Daily Weather History Graph

Daily Weather History Graph

Search for Another Location

Airport or City:

Trip Planner

Search our weather history database for the weather conditions in past years. The results will help you decide how hot, cold, wet, or windy it might be!

Date:

Astronomy

Nov. 20, 2013 Rise Set
Actual Time 7:19 AM CST 4:34 PM CST
Civil Twilight 6:46 AM CST 5:07 PM CST
Nautical Twilight 6:09 AM CST 5:44 PM CST
Astronomical Twilight 5:34 AM CST 6:19 PM CST
Moon 7:18 PM CST (11/20) 9:45 AM CST (11/20)
Length of Visible Light 10h 21m
Length of Day
9h 15m
Waning Gibbous, 91% of the Moon is Illuminated
Nov 20
Waning Gibbous
Nov 25
Last Quarter
Dec 2
New
Dec 9
First Quarter
Dec 17
Full

Hourly Weather History & Observations

Time (CST) Temp. Windchill Dew Point Humidity Pressure Visibility Wind Dir Wind Speed Gust Speed Precip Events Conditions
12:00 AM 41.0 °F 33.1 °F 28.4 °F 61% 29.89 in 10.0 mi South 15.0 mph 21.9 mph N/A   Overcast
12:20 AM 41.0 °F 33.9 °F 28.4 °F 61% 29.89 in 10.0 mi South 12.7 mph - N/A   Overcast
12:40 AM 42.8 °F 36.6 °F 28.4 °F 57% 29.89 in 10.0 mi South 11.5 mph 19.6 mph N/A   Overcast
1:01 AM 42.8 °F 35.8 °F 28.4 °F 57% 29.88 in 10.0 mi South 13.8 mph 19.6 mph N/A   Overcast
1:20 AM 42.8 °F 35.8 °F 28.4 °F 57% 29.88 in 10.0 mi South 13.8 mph 23.0 mph N/A   Overcast
1:41 AM 42.8 °F 35.4 °F 28.4 °F 57% 29.88 in 10.0 mi South 15.0 mph 18.4 mph N/A   Overcast
2:00 AM 42.8 °F 36.2 °F 28.4 °F 57% 29.88 in 10.0 mi South 12.7 mph 19.6 mph N/A   Overcast
2:20 AM 42.8 °F 34.5 °F 26.6 °F 53% 29.88 in 10.0 mi South 18.4 mph 23.0 mph N/A   Overcast
2:41 AM 42.8 °F 35.8 °F 26.6 °F 53% 29.89 in 10.0 mi South 13.8 mph 21.9 mph N/A   Overcast
3:00 AM 42.8 °F 35.8 °F 26.6 °F 53% 29.88 in 10.0 mi South 13.8 mph - N/A   Overcast
3:20 AM 42.8 °F 36.6 °F 26.6 °F 53% 29.88 in 10.0 mi SSE 11.5 mph 19.6 mph N/A   Overcast
3:41 AM 42.8 °F 35.4 °F 26.6 °F 53% 29.88 in 10.0 mi SSE 15.0 mph 20.7 mph N/A   Overcast
4:00 AM 42.8 °F 36.2 °F 26.6 °F 53% 29.88 in 10.0 mi South 12.7 mph 19.6 mph N/A   Overcast
4:20 AM 42.8 °F 36.6 °F 26.6 °F 53% 29.88 in 10.0 mi SSE 11.5 mph 19.6 mph N/A   Overcast
4:41 AM 42.8 °F 35.8 °F 26.6 °F 53% 29.88 in 10.0 mi SSE 13.8 mph - N/A   Overcast
5:00 AM 42.8 °F 36.2 °F 26.6 °F 53% 29.88 in 10.0 mi South 12.7 mph 17.3 mph N/A   Overcast
5:20 AM 42.8 °F 37.0 °F 26.6 °F 53% 29.88 in 10.0 mi South 10.4 mph - N/A   Overcast
5:41 AM 42.8 °F 36.6 °F 26.6 °F 53% 29.87 in 10.0 mi South 11.5 mph 18.4 mph N/A   Overcast
6:00 AM 42.8 °F 37.0 °F 26.6 °F 53% 29.88 in 10.0 mi SSE 10.4 mph - N/A   Overcast
6:20 AM 42.8 °F 37.5 °F 26.6 °F 53% 29.88 in 10.0 mi SSE 9.2 mph - N/A   Overcast
6:41 AM 42.8 °F 37.5 °F 26.6 °F 53% 29.88 in 10.0 mi SSE 9.2 mph - N/A   Overcast
7:00 AM 42.8 °F 37.0 °F 26.6 °F 53% 29.88 in 10.0 mi SSE 10.4 mph - N/A   Overcast
7:20 AM 42.8 °F 37.5 °F 26.6 °F 53% 29.89 in 10.0 mi South 9.2 mph - N/A   Overcast
7:41 AM 42.8 °F 37.5 °F 26.6 °F 53% 29.89 in 10.0 mi SSE 9.2 mph - N/A   Overcast
8:00 AM 42.8 °F 37.5 °F 24.8 °F 49% 29.89 in 10.0 mi SSE 9.2 mph - N/A   Overcast
8:21 AM 42.8 °F 37.5 °F 26.6 °F 53% 29.90 in 10.0 mi SSE 9.2 mph 16.1 mph N/A   Overcast
8:41 AM 42.8 °F 37.5 °F 24.8 °F 49% 29.90 in 10.0 mi SSE 9.2 mph - N/A   Overcast
9:00 AM 42.8 °F 36.6 °F 24.8 °F 49% 29.91 in 10.0 mi SSE 11.5 mph - N/A   Overcast
9:21 AM 42.8 °F 35.4 °F 24.8 °F 49% 29.91 in 10.0 mi South 15.0 mph - N/A   Overcast
9:41 AM 42.8 °F 36.6 °F 24.8 °F 49% 29.91 in 10.0 mi South 11.5 mph - N/A   Overcast
10:00 AM 42.8 °F 35.8 °F 26.6 °F 53% 29.92 in 10.0 mi South 13.8 mph 19.6 mph N/A   Overcast
10:21 AM 42.8 °F 37.5 °F 26.6 °F 53% 29.93 in 10.0 mi SSE 9.2 mph - N/A   Overcast
10:40 AM 42.8 °F 37.0 °F 26.6 °F 53% 29.93 in 10.0 mi SSE 10.4 mph - N/A   Overcast
11:01 AM 42.8 °F 36.6 °F 26.6 °F 53% 29.93 in 10.0 mi SSE 11.5 mph 16.1 mph N/A   Overcast
11:21 AM 44.6 °F 38.1 °F 28.4 °F 53% 29.92 in 10.0 mi SSE 13.8 mph 18.4 mph N/A   Overcast
11:40 AM 44.6 °F 38.4 °F 28.4 °F 53% 29.92 in 10.0 mi South 12.7 mph - N/A   Overcast
12:01 PM 44.6 °F 37.4 °F 28.4 °F 53% 29.92 in 10.0 mi South 16.1 mph - N/A   Overcast
12:20 PM 44.6 °F 38.8 °F 28.4 °F 53% 29.92 in 10.0 mi South 11.5 mph - N/A   Overcast
12:40 PM 42.8 °F 36.2 °F 28.4 °F 57% 29.92 in 10.0 mi South 12.7 mph - N/A   Overcast
1:01 PM 42.8 °F 36.2 °F 30.2 °F 61% 29.91 in 10.0 mi South 12.7 mph 19.6 mph N/A   Overcast
1:20 PM 42.8 °F 36.6 °F 30.2 °F 61% 29.91 in 10.0 mi SSE 11.5 mph 18.4 mph N/A   Overcast
1:41 PM 42.8 °F 37.5 °F 30.2 °F 61% 29.91 in 10.0 mi South 9.2 mph - N/A   Overcast
2:01 PM 42.8 °F 37.0 °F 30.2 °F 61% 29.91 in 10.0 mi South 10.4 mph 16.1 mph N/A   Mostly Cloudy
2:20 PM 42.8 °F 37.0 °F 30.2 °F 61% 29.91 in 10.0 mi South 10.4 mph - N/A   Scattered Clouds
2:41 PM 42.8 °F 36.6 °F 30.2 °F 61% 29.91 in 10.0 mi SSE 11.5 mph 18.4 mph N/A   Scattered Clouds
3:01 PM 42.8 °F 37.0 °F 30.2 °F 61% 29.91 in 10.0 mi South 10.4 mph - N/A   Scattered Clouds
3:20 PM 42.8 °F 36.6 °F 30.2 °F 61% 29.91 in 10.0 mi South 11.5 mph 17.3 mph N/A   Scattered Clouds
3:41 PM 41.0 °F 35.8 °F 30.2 °F 65% 29.91 in 10.0 mi South 8.1 mph 18.4 mph N/A   Mostly Cloudy
4:00 PM 41.0 °F 35.2 °F 30.2 °F 65% 29.92 in 10.0 mi SSE 9.2 mph - N/A   Overcast
4:20 PM 41.0 °F 34.7 °F 30.2 °F 65% 29.93 in 10.0 mi SSE 10.4 mph - N/A   Overcast
4:41 PM 41.0 °F 34.7 °F 30.2 °F 65% 29.93 in 10.0 mi SSE 10.4 mph - N/A   Overcast
5:00 PM 41.0 °F 35.8 °F 30.2 °F 65% 29.93 in 10.0 mi SSE 8.1 mph - N/A   Overcast
5:21 PM 39.2 °F 32.0 °F 32.0 °F 75% 29.94 in 10.0 mi SSE 11.5 mph 16.1 mph N/A   Overcast
5:41 PM 39.2 °F 31.6 °F 32.0 °F 75% 29.95 in 10.0 mi SSE 12.7 mph 18.4 mph N/A   Overcast
6:00 PM 37.4 °F 31.4 °F 32.0 °F 81% 29.96 in 10.0 mi SSE 8.1 mph - N/A   Overcast
6:21 PM 37.4 °F 30.8 °F 32.0 °F 81% 29.96 in 10.0 mi South 9.2 mph - N/A   Overcast
6:41 PM 37.4 °F 32.8 °F 32.0 °F 81% 29.97 in 10.0 mi SSE 5.8 mph - N/A   Overcast
7:00 PM 37.4 °F 30.8 °F 32.0 °F 81% 29.97 in 10.0 mi SSE 9.2 mph - N/A   Overcast
7:21 PM 37.4 °F 32.8 °F 32.0 °F 81% 29.98 in 10.0 mi SSE 5.8 mph - N/A   Overcast
7:41 PM 37.4 °F 30.8 °F 32.0 °F 81% 29.99 in 10.0 mi SSE 9.2 mph - N/A   Overcast
8:00 PM 37.4 °F 32.1 °F 32.0 °F 81% 29.99 in 10.0 mi SSE 6.9 mph - N/A   Overcast
8:21 PM 37.4 °F 31.4 °F 32.0 °F 81% 30.00 in 10.0 mi SSE 8.1 mph - N/A   Overcast
8:41 PM 35.6 °F 31.7 °F 32.0 °F 87% 30.00 in 10.0 mi SSE 4.6 mph - N/A   Overcast
9:00 PM 35.6 °F 30.7 °F 32.0 °F 87% 30.00 in 10.0 mi SSE 5.8 mph - N/A   Overcast
9:21 PM 35.6 °F 31.7 °F 32.0 °F 87% 30.00 in 10.0 mi SSE 4.6 mph - N/A   Overcast
9:41 PM 35.6 °F 32.8 °F 32.0 °F 87% 30.01 in 10.0 mi SSE 3.5 mph - N/A   Overcast
10:01 PM 35.6 °F 32.8 °F 32.0 °F 87% 30.01 in 10.0 mi SSE 3.5 mph - N/A   Overcast
10:21 PM 35.6 °F 32.8 °F 32.0 °F 87% 30.01 in 10.0 mi SSE 3.5 mph - N/A   Overcast
10:40 PM 35.6 °F 32.8 °F 32.0 °F 87% 30.00 in 10.0 mi SE 3.5 mph - N/A   Overcast
11:00 PM 35.6 °F - 32.0 °F 87% 30.01 in 10.0 mi Calm Calm - N/A   Overcast
11:21 PM 35.6 °F 29.9 °F 32.0 °F 87% 30.02 in 7.0 mi South 6.9 mph - N/A   Overcast
11:40 PM 35.6 °F 29.2 °F 33.8 °F 93% 30.03 in 5.0 mi South 8.1 mph - N/A   Overcast